| time (UTC) | temp F | wind direction | speed knots | gust knots | rain 1hr in | rain 24hr in | rain mn in | humidity % | barometer mb |
| 20260506090059 | 61 | 39 | 0.9 | 3.5 | 0.00 | 0.00 | 0.00 | 70 | 1005.5 |
| 20260506084615 | 61 | 100 | 0.0 | 2.6 | 0.00 | 0.00 | 0.00 | 70 | 1005.6 |
| 20260506083100 | 62 | 40 | 0.0 | 1.7 | 0.00 | 0.00 | 0.00 | 70 | 1005.7 |
| 20260506081606 | 63 | 109 | 0.0 | 1.7 | 0.00 | 0.00 | 0.00 | 70 | 1005.5 |
| 20260506073101 | 65 | 74 | 0.9 | 2.6 | 0.00 | 0.00 | 0.00 | 69 | 1005.2 |
| 20260506071557 | 65 | 78 | 0.9 | 2.6 | 0.00 | 0.00 | 0.00 | 68 | 1005.4 |
| 20260506061602 | 68 | 79 | 0.9 | 3.5 | 0.00 | 0.00 | 0.00 | 62 | 1004.5 |
| 20260506050110 | 72 | 112 | 0.0 | 2.6 | 0.00 | 0.00 | 0.00 | 50 | 1004.2 |
| 20260506044558 | 72 | 79 | 0.0 | 1.7 | 0.00 | 0.00 | 0.00 | 46 | 1004.2 |
| 20260506043106 | 73 | 98 | 0.9 | 3.5 | 0.00 | 0.00 | 0.00 | 43 | 1004.2 |
| 20260506041559 | 73 | 331 | 0.0 | 0.0 | 0.00 | 0.00 | 0.00 | 44 | 1003.9 |
| 20260506040107 | 74 | 331 | 0.0 | 0.0 | 0.00 | 0.00 | 0.00 | 40 | 1003.9 |
| 20260506034605 | 75 | 331 | 0.0 | 0.0 | 0.00 | 0.00 | 0.00 | 38 | 1003.6 |
| 20260506033059 | 78 | 331 | 0.0 | 1.7 | 0.00 | 0.00 | 0.00 | 32 | 1003.8 |
| 20260506031559 | 79 | 330 | 0.9 | 3.5 | 0.00 | 0.00 | 0.00 | 30 | 1003.7 |
| 20260506030059 | 79 | 333 | 0.9 | 3.5 | 0.00 | 0.00 | 0.00 | 28 | 1003.4 |
| 20260506024600 | 80 | 338 | 0.9 | 3.5 | 0.00 | 0.00 | 0.00 | 27 | 1003.2 |
| 20260506023100 | 80 | 329 | 0.9 | 2.6 | 0.00 | 0.00 | 0.00 | 29 | 1002.9 |
| 20260506021606 | 82 | 340 | 0.9 | 3.5 | 0.00 | 0.00 | 0.00 | 26 | 1002.8 |
| 20260506020059 | 82 | 330 | 1.7 | 5.2 | 0.00 | 0.00 | 0.00 | 25 | 1002.5 |
| 20260506014559 | 83 | 314 | 0.9 | 3.5 | 0.00 | 0.00 | 0.00 | 24 | 1002.5 |
| 20260506013106 | 84 | 314 | 0.9 | 3.5 | 0.00 | 0.00 | 0.00 | 26 | 1002.4 |
| 20260506011607 | 85 | 316 | 0.9 | 4.3 | 0.00 | 0.00 | 0.00 | 25 | 1002.2 |
| 20260506010059 | 87 | 326 | 3.5 | 7.8 | 0.00 | 0.00 | 0.00 | 24 | 1002.1 |
| 20260506004558 | 86 | 309 | 0.9 | 3.5 | 0.00 | 0.00 | 0.00 | 29 | 1001.8 |
| 20260506003059 | 86 | 281 | 0.0 | 1.7 | 0.00 | 0.00 | 0.00 | 28 | 1001.4 |
| 20260506001600 | 87 | 281 | 0.0 | 1.7 | 0.00 | 0.00 | 0.00 | 27 | 1001.3 |
| 20260506000059 | 87 | 269 | 0.9 | 2.6 | 0.00 | 0.00 | 0.00 | 26 | 1001.4 |
| 20260505234608 | 88 | 259 | 0.9 | 2.6 | 0.00 | 0.00 | 0.00 | 24 | 1001.2 |
| 20260505233058 | 89 | 304 | 0.9 | 2.6 | 0.00 | 0.00 | 0.00 | 23 | 1001.2 |
| 20260505231608 | 90 | 272 | 1.7 | 8.7 | 0.00 | 0.00 | 0.00 | 21 | 1001.3 |
| 20260505230059 | 91 | 250 | 0.9 | 8.7 | 0.00 | 0.00 | 0.00 | 24 | 1001.2 |
| 20260505224558 | 93 | 312 | 3.5 | 8.7 | 0.00 | 0.00 | 0.00 | 21 | 1001.4 |
| 20260505223106 | 93 | 290 | 2.6 | 7.8 | 0.00 | 0.00 | 0.00 | 22 | 1001.4 |
| 20260505221600 | 92 | 296 | 1.7 | 7.0 | 0.00 | 0.00 | 0.00 | 22 | 1001.5 |
| 20260505220059 | 92 | 355 | 1.7 | 7.8 | 0.00 | 0.00 | 0.00 | 24 | 1001.4 |
| 20260505214619 | 92 | 323 | 4.3 | 10.4 | 0.00 | 0.00 | 0.00 | 21 | 1001.4 |
| 20260505213103 | 93 | 329 | 4.3 | 9.6 | 0.00 | 0.00 | 0.00 | 22 | 1001.4 |
| 20260505211607 | 93 | 328 | 4.3 | 9.6 | 0.00 | 0.00 | 0.00 | 21 | 1001.5 |
| 20260505210058 | 94 | 342 | 2.6 | 10.4 | 0.00 | 0.00 | 0.00 | 23 | 1001.6 |
| 20260505204558 | 94 | 339 | 2.6 | 9.6 | 0.00 | 0.00 | 0.00 | 23 | 1001.8 |
| 20260505203058 | 93 | 5 | 3.5 | 9.6 | 0.00 | 0.00 | 0.00 | 24 | 1001.8 |
| 20260505201559 | 93 | 271 | 3.5 | 9.6 | 0.00 | 0.00 | 0.00 | 23 | 1001.8 |
| 20260505200106 | 92 | 306 | 1.7 | 8.7 | 0.00 | 0.00 | 0.00 | 26 | 1002.1 |
| 20260505194558 | 92 | 292 | 2.6 | 8.7 | 0.00 | 0.00 | 0.00 | 28 | 1002.3 |
| 20260505193058 | 92 | 288 | 4.3 | 9.6 | 0.00 | 0.00 | 0.00 | 26 | 1002.4 |
| 20260505191558 | 91 | 338 | 3.5 | 8.7 | 0.00 | 0.00 | 0.00 | 30 | 1002.5 |
| 20260505190059 | 91 | 308 | 4.3 | 10.4 | 0.00 | 0.00 | 0.00 | 29 | 1002.7 |
| 20260505184558 | 91 | 355 | 3.5 | 8.7 | 0.00 | 0.00 | 0.00 | 32 | 1002.9 |
| 20260505183106 | 91 | 329 | 2.6 | 5.2 | 0.00 | 0.00 | 0.00 | 33 | 1002.9 |
| 20260505181559 | 90 | 275 | 1.7 | 7.0 | 0.00 | 0.00 | 0.00 | 39 | 1003.0 |
| 20260505180104 | 88 | 307 | 1.7 | 4.3 | 0.00 | 0.00 | 0.00 | 47 | 1003.2 |
| 20260505174604 | 86 | 328 | 1.7 | 6.1 | 0.00 | 0.00 | 0.00 | 46 | 1003.3 |
| 20260505173059 | 86 | 298 | 0.0 | 3.5 | 0.00 | 0.00 | 0.00 | 53 | 1003.3 |
| 20260505171557 | 84 | 255 | 1.7 | 7.0 | 0.00 | 0.00 | 0.00 | 53 | 1003.5 |
| 20260505170058 | 82 | 171 | 1.7 | 5.2 | 0.00 | 0.00 | 0.00 | 59 | 1003.5 |
| 20260505164605 | 80 | 185 | 1.7 | 7.0 | 0.00 | 0.00 | 0.00 | 63 | 1003.6 |
| 20260505163058 | 79 | 186 | 2.6 | 7.8 | 0.00 | 0.00 | 0.00 | 63 | 1003.6 |
| 20260505161605 | 78 | 255 | 2.6 | 8.7 | 0.00 | 0.00 | 0.00 | 66 | 1003.7 |
| 20260505153107 | 76 | 311 | 2.6 | 7.8 | 0.00 | 0.00 | 0.00 | 71 | 1003.6 |
| 20260505151610 | 75 | 283 | 2.6 | 7.8 | 0.00 | 0.00 | 0.00 | 72 | 1003.4 |
| 20260505140113 | 72 | 225 | 0.9 | 6.1 | 0.00 | 0.00 | 0.00 | 79 | 1003.6 |
| 20260505124608 | 68 | 269 | 0.0 | 3.5 | 0.00 | 0.00 | 0.00 | 84 | 1003.1 |
| 20260505123058 | 68 | 296 | 0.9 | 5.2 | 0.00 | 0.00 | 0.00 | 84 | 1003.0 |
| 20260505121559 | 67 | 313 | 0.9 | 3.5 | 0.00 | 0.00 | 0.00 | 83 | 1002.8 |
| 20260505120058 | 68 | 282 | 1.7 | 3.5 | 0.00 | 0.00 | 0.00 | 83 | 1002.5 |
| 20260505114602 | 68 | 272 | 0.9 | 6.1 | 0.00 | 0.00 | 0.00 | 82 | 1002.2 |
| 20260505113118 | 68 | 244 | 0.9 | 6.1 | 0.00 | 0.00 | 0.00 | 81 | 1002.1 |
| 20260505111601 | 68 | 201 | 1.7 | 8.7 | 0.00 | 0.00 | 0.00 | 81 | 1002.0 |
| 20260505101557 | 69 | 213 | 2.6 | 7.8 | 0.00 | 0.00 | 0.00 | 78 | 1001.8 |
| 20260505100058 | 69 | 267 | 1.7 | 9.6 | 0.00 | 0.00 | 0.00 | 78 | 1001.8 |
| 20260505094556 | 69 | 259 | 2.6 | 7.0 | 0.00 | 0.00 | 0.00 | 78 | 1001.9 |
| 20260505093101 | 69 | 202 | 2.6 | 8.7 | 0.00 | 0.00 | 0.00 | 77 | 1001.9 |
| 20260505091606 | 69 | 171 | 2.6 | 9.6 | 0.00 | 0.00 | 0.00 | 77 | 1001.7 |